Regional Weather Roundup
Issued by NWS Newport/Morehead, NC

Current Version | Previous Version | Graphics & Text | Print | Product List | Glossary On
Versions: 1 2 3 4 5 6 7 8 9 10 11 12 13 14 15 16 17 18 19 20 21 22 23 24 25 26 27 28 29 30 31 32 33 34 35 36 37 38 39 40 41 42 43 44 45 46 47 48 49 50
000 ASUS42 KMHX 250922 RWRMHX WEATHER ROUNDUP FOR EASTERN NORTH CAROLINA NATIONAL WEATHER SERVICE NEWPORT/MOREHEAD CITY NC 400 AM EST THU DEC 25 2014 NOTE: "FAIR" INDICATES FEW OR NO CLOUDS BELOW 12,000 FEET WITH NO SIGNIFICANT WEATHER AND/OR OBSTRUCTIONS TO VISIBILITY NCZ015>017-031-032-045>047-102-103-251000- NORTH COAST CITY SKY/WX TMP DP RH WIND PRES REMARKS EDENTON CLOUDY 64 62 94 SW6 29.71S ELIZABETH CITY CLOUDY 68 63 84 SW9 29.69F KITTY HAWK CLOUDY 66 65 99 SW8 29.70S MANTEO CLOUDY 63 63 100 SW9 29.71F $$ NCZ045>047-081-094-103-104-251000- CENTRAL COAST CITY SKY/WX TMP DP RH WIND PRES REMARKS FRISCO CLOUDY 61 61 100 SW14 29.75F FOG SWANQUARTER N/A 59 N/A N/A SW8 29.71S $$ NCZ095-097-098-100-101-251000- SOUTHERN COAST CITY SKY/WX TMP DP RH WIND PRES REMARKS BEAUFORT CLOUDY 60 60 100 SW8 29.77R CEDAR ISLAND N/A 63 N/A N/A SW8 29.79R JACKSONVILLE CLOUDY 65 62 90 SW6 29.75S PINEY ISLAND CLOUDY 67 63 87 SW8 29.76R WILMINGTON CLOUDY 64 62 93 SW8 29.77R $$ NCZ011>013-027>030-043-044-078>080-089-090>093-098-251000- COASTAL PLAIN CITY SKY/WX TMP DP RH WIND PRES REMARKS AHOSKIE CLOUDY 62 60 94 CALM 29.69F CLINTON CLOUDY 62 59 91 W13G26 29.78R ELIZABETHTOWN CLOUDY 62 51 67 W12G21 29.80R GOLDSBORO LGT RAIN 64 64 100 SW9 29.72R GREENVILLE CLOUDY 64 63 94 SW6 29.74F HAVELOCK CLOUDY 65 63 93 SW7 29.77R KENANSVILLE CLOUDY 64 62 95 SW6 29.76R KINSTON CLOUDY 65 63 94 SW7 29.72F NEW BERN CLOUDY 67 62 84 S8 29.72F RICHLANDS CLOUDY 64 61 88 SW8 29.77R ROCKY MOUNT CLOUDY 64 61 90 S7 29.70F WASHINGTON CLOUDY 64 62 91 SW6 29.72F WHITEVILLE CLOUDY 62 56 81 W8G21 29.81R $$ AMZ130-135-150-152-154-156-158-170-250-252-270-ANZ085-086-088-633-658-670-251000- MARINE OBSERVATIONS STATION/POSITION TIME TEMP WIND PRES WAVE SWELL AIR SEA DIR/SP/G HT/PER HT/PER (UTC) (F) (DEG/KT/KT) (MB) (FT/S) (FT/S) CHESAPEAKE LIGHT 0900 63 240/ 21/ 21 1005.3 64 E VA BEACH 0900 58 53 220/ 16/ 17 1005.4 7/ 8 5/ 8 DUCK 0900 64 50 230/ 10/ 14 1004.9 2 E DUCK 0900 50 N/A 3/ 7 10 NE DUCK 0900 50 N/A 4/ 8 OREGON INLET 0900 57 53 220/ 10/ 12 1006.1 13E OREGON INLT 0900 51 N/A 6/ 7 2/11 HATTERAS CG 0900 62 56 220/ 9/ 13 1007.4 DIAMOND BUOY 0900 71 1006.9 9/ 7 17 S OCRACOKE NOT AVBL CAPE LOOKOUT 0900 61 220/ 10/ 13 1008.1 BEAUFORT LAB 0900 59 55 230/ 3/ 7 1006.8 30 SE NEW RIVER 0900 62 60 240/ 14/ 16 1008.7 7/ 8 5/ 8 5 SE WRIGHTSVLE NOT AVBL 225 S CAPE HAT 0756 75 72 210/ 21/ 25 1013.2 8/ 6 41 SE CHARLESTON 0900 66 72 270/ 25/ 31 1010.8 7/ 7 5/ 7 $$

USA.gov is the U.S. government's official web portal to all federal, state and local government web resources and services.